Observations

BIA Manual Entry


Date Temp Humidity Rainfall Dew Point Wind Direction Wind Speed Wind Pressure Condition Visibility
2025-02-28 23:58:41 27 86 0.01 25 360 17.1 1011 Night Shower 08 KM
2025-02-28 23:01:15 28 85 0.0 25 020 15.2 1012 Light Haze 10 KM
2025-02-28 22:01:34 28 85 0.0 25 030 15.2 1012 Light Haze 10 KM
2025-02-28 20:58:05 28 84 0.00 25 020 19.0 1011 Light Haze 9KM
2025-02-28 19:58:53 28 83 0.00 25 020 13.3 1011 Light Haze 9KM
2025-02-28 19:02:27 28 82 0.00 25 010 19.0 1010 Light Haze 9KM
2025-02-28 17:59:34 28 82 0.00 25 010 22.8 1009 Light Haze 8KM
2025-02-28 17:00:18 29 80 0.00 25 360 26.6 1009 Light Haze 9KM
2025-02-28 16:00:49 30 73 0.00 25 360 24.7 1009 Partly Cloudy (Day) 10 km
2025-02-28 14:59:58 31 68 0.00 24 350 19.0 1009 Partly Cloudy (Day) 10 km
2025-02-28 14:02:51 31 71 0.00 25 350 20.9 1009 Partly Cloudy (Day) 10 km
2025-02-28 13:00:47 31 74 0.00 26 350 19.0 1010 Partly Cloudy (Day) 15 km
2025-02-28 12:03:07 31 69 0.00 25 020 17.1 1011 Partly Cloudy (Day) 10KM
2025-02-28 11:09:43 31 70 0.00 24 050 7.6 1012 Partly Cloudy (Day) 10KM
2025-02-28 10:01:21 30 72 0.0 25 030 5.7 1012 Cloudy 20KM
2025-02-28 09:00:13 29 76 0.0 25 120 3.8 1013 Cloudy 10KM
2025-02-28 08:02:10 27 92 0 25 230 3.8 1011 Partly Cloudy (Day) 8 KM
2025-02-28 06:59:56 26 97 0 25 190 5.7 1011 Mist 4 KM
2025-02-28 06:01:48 26 97 0 25 150 7.6 1010 Mist 3 KM
2025-02-28 05:01:16 26 96 0 25 150 3.8 1009 Light Haze 90 KM
2025-02-28 03:59:31 27 93 0 2.5 360 3.8 1009 Light Haze 9 KM
2025-02-28 03:00:30 26 95 0 25 050 3.8 1009 Light Haze 9 KM
2025-02-28 02:01:37 27 92 25 360 3.8 1010 Light Haze 09KM
2025-02-28 01:03:54 27 90 25 050 5.7 1010 Light Haze 08KM
2025-02-28 00:11:21 28 89 26 040 13.3 1011 Light Haze 08KM